User: anonymous   Login
Location: Newark
(34.6283°N, 36.0776°E)
Time: 23:53:58
(UTC+00:00)
Language:

A-11 Canister half - Orbit

View from above orbital plane
View from above orbital plane
View from above satellite
View from above satellite

Ground track
Ground track

The orbit data is extracted from the following two-line orbital elements,

1    51U 60009C   19258.04016789 -.00000066 +00000-0 +19771-3 0  9992
2    51 047.2116 122.5708 0108224 061.0972 300.0623 12.18277566630396
Epoch (UTC): 15 September 2019 00:57:50
Eccentricity: 0.0108224
inclination: 47.2116°
perigee height: 1514 km
apogee height: 1686 km
right ascension of ascending node: 122.5708°
argument of perigee: 61.0972°
revolutions per day: 12.18277566
mean anomaly at epoch: 300.0623°
orbit number at epoch: 63039

The dashed part of the orbit path shows where the satellite is in the earth's shadow,  

DLR